sat.trackr.live / text

‹ back to catalog

STARLINK-30577

NORAD 58053 · 2023-158C

PAYLOAD ACTIVE UNKNOWN

§ Identity

Operator
Country
US
Launch date
2023-10-13
Launch site
AFETR
Launch vehicle
Mass (kg)
RCS (m²)

Purposes: comms

External: N2YO · Heavens-Above · Gunter

§ Orbital elements

Epoch: 2026-05-24T21:12:54.613152Z

Period
94.27 min
Inclination
43.0027°
Eccentricity
0.0001204
Mean motion
15.27582132 rev/d
Perigee alt
482.2 km
Apogee alt
483.9 km
Semi-major
6,861.2 km
B*
7.3677e-5
RAAN
316.6626°
Arg perigee
271.3461°
Mean anomaly
88.7252°
Rev number
14,522

§ Raw data

STARLINK-305771 58053U 23158C   26144.88396543  .00001766  00000+0  73677-4 0  99962 58053  43.0027 316.6626 0001204 271.3461  88.7252 15.27582132145222

JSON: /api/v1/satellites/58053 · /tle

For live sub-satellite position, see the globe view (requires WebGL).

§ Visibility from observer

Set your observer location to see the next 7 days of passes ≥ 10°. The values pass through the URL so the page stays shareable.

No JS? Fill the form by hand. The geolocation button needs JavaScript.